www.pogodaiklimat.ru

Погода и климат >> Архив погоды >> Коморские Острова >> Морони


АРХИВ ПОГОДЫ в Морони

Время (UTC), дата Ветер
(напр.,м/с)
 
Видим.   Явления Облачность Т
(С)
Тd
(С)
f
(%)
Тe
(С)
Тes
(С)
Комфортность P
(гПа)
Po
(гПа)
Тmin
(С)
Tmax
(С)
R
(мм)
R24
(мм)
S
(см)
03 17.03 В 3 30 км 1/1 600 м
[Cu hum Ac trans Ci sp]
+23.5 +22.1 92 +30 +30 очень
душно
1012.4 1008.1
06 17.03 З 2 30 км 3/1 600 м
[Cu hum Ci fib]
+29.7 +23.8 71 +41 +50 опасность
перегрева
1014.4 1010.3 +23.5 25
09 17.03 З 4 30 км 5/3 600 м
[Cu Sc Ci fib]
+32.0 +24.8 66 +45 +56 опасность
перегрева
1012.9 1008.8
12 17.03 ЮЗ 1 30 км гроза без осадков 9/9 600 м
[Cb cap As op]
+27.5 +24.4 83 +39 +40 очень
душно
1012.0 1007.8 3
15 17.03 ЮВ 2 30 км в посл. час дождь 9/9 600 м
[Cb cap As op Ci sp]
+27.0 +26.0 94 +40 +40 очень
душно
1012.2 1008.0
18 17.03 В 3 30 км {гроза} 8/6 600 м
[Cb cap Ac trans Ci sp]
+26.0 +25.0 94 +37 +37 очень
душно
1013.4 1009.1 +33.1 8
21 17.03 ЮВ 1 30 км 3/3 600 м
[Cu Sc]
+25.0 +23.6 92 +34 +34 очень
душно
1013.1 1008.9
00 18.03 30 км н/о +25.6 +23.6 89 +35 +35 очень
душно
1012.2 1007.9
03 18.03 В 2 30 км 6/3 600 м
[Cu Sc Ci sp]
+24.6 +23.2 92 +33 +33 очень
душно
1012.2 1008.0
06 18.03 СЗ 2 30 км 6/1 600 м
[Cu Sc Ci fib]
+31.5 +23.7 63 +43 +50 опасность
перегрева
1014.3 1010.1 +25.0 76
09 18.03 ЮЗ 2 30 км 5/1 600 м
[Cu Sc Ci fib]
+31.5 +25.1 69 +45 +63 опасность
перегрева
1013.2 1009.1
12 18.03 ЮЗ 2 30 км в посл. час дождь {ливн. осадки} 8/8 600 м
[Cu Sc]
+28.8 +24.9 79 +41 +44 опасность
перегрева
1011.2 1007.1 12
15 18.03 штиль 0 30 км 8/6 600 м
[Cu Sc Ci fib]
+29.3 +25.4 80 +43 +43 опасность
перегрева
1011.4 1007.2
18 18.03 В 2 30 км 3/3 600 м
[Cu Sc Ci fib]
+26.8 +24.0 85 +37 +37 очень
душно
1013.1 1008.9 +33.0 12
21 18.03 В 4 30 км 4/1 600 м
[Cu Sc]
+27.9 +23.7 78 +38 +38 очень
душно
1013.3 1009.1
00 19.03 В 3 30 км 3/3 600 м
[Cu Sc]
+26.8 +24.4 87 +38 +38 очень
душно
1011.3 1007.1
03 19.03 В 1 30 км 3/3 600 м
[Cu Sc Ci fib]
+25.0 +26.8 100 +36 +36 очень
душно
1011.2 1007.0
06 19.03 СЗ 2 30 км 4/1 600 м
[Cu Sc Ci fib]
+30.5 +24.2 69 +42 +51 опасность
перегрева
1012.9 1008.8 +25.0 12
09 19.03 ЮЗ 3 30 км 6/3 600 м
[Cu Sc]
+32.0 +25.1 67 +46 +55 опасность
перегрева
1011.9 1007.8
12 19.03 Ю 3 25 км гроза, ливневой дождь 9/9 600 м
[Cb cap]
+30.0 +25.2 76 +44 +45 опасность
перегрева
1009.6 1005.5 0.9
15 19.03 штиль 0 25 км {гроза, дождь} 4/1 600 м
[Cu Sc Ac trans Ci sp]
+30.5 +24.9 72 +44 +44 опасность
перегрева
1010.1 1005.9
18 19.03 В 4 25 км {гроза, дождь} 1/1 600 м
[Cu med, cong]
+27.5 +22.6 75 +36 +36 очень
душно
1011.3 1007.2 +32.2 1
21 19.03 В 1 30 км 3/3 600 м
[Cu Sc]
+26.0 +23.6 87 +35 +35 очень
душно
1011.6 1007.4
00 20.03 В 1 30 км 1/1 600 м
[Cu hum]
+25.4 +22.7 85 +33 +33 очень
душно
1010.6 1006.5
03 20.03 В 3 30 км 1/1 600 м
[]
+25.0 +22.1 84 +32 +32 очень
душно
1010.0 1006.2
06 20.03 СЗ 2 30 км 3/3 600 м
[Cu Sc]
+30.5 +22.6 63 +40 +47 очень
душно
1012.2 1008.0 +25.0 10
09 20.03 ЮЗ 3 30 км 3/3 600 м
[Cu Sc]
+32.0 +24.3 64 +44 +57 опасность
перегрева
1010.6 1006.5
12 20.03 СЗ 6 30 км 3/3 600 м
[Cu Sc]
+28.5 +25.0 81 +41 +44 опасность
перегрева
1008.1 1004.1
15 20.03 В 5 30 км 3/3 600 м
[Cu Sc]
+30.5 +23.8 67 +42 +42 опасность
перегрева
1008.9 1004.7
18 20.03 В 2 30 км 1/1 600 м
[Cu hum]
+27.0 +23.6 82 +37 +37 очень
душно
1010.6 1006.4 +34.5
21 20.03 В 2 25 км 3/1 600 м
[Cu hum Ci sp]
+25.2 +21.7 81 +32 +32 очень
душно
1011.0 1006.8
00 21.03 В 2 30 км 1/1 600 м
[Cu hum]
+25.0 +23.2 90 +33 +33 очень
душно
1010.1 1005.9
03 21.03 В 2 30 км 1/1 600 м
[Cu hum Ci fib]
+24.2 +22.4 90 +32 +32 очень
душно
1010.3 1006.0
06 21.03 СЗ 2 30 км 1/1 600 м
[Cu Sc Ci fib]
+30.5 +24.2 69 +42 +51 опасность
перегрева
1012.2 1008.0 +25.0
09 21.03 З 3 30 км 4/1 600 м
[Cu Sc]
+32.7 +24.0 60 +44 +57 опасность
перегрева
1011.8 1007.7
12 21.03 СЗ 5 30 км 6/1 600 м
[Cu Sc]
+32.7 +26.6 70 +50 +53 опасность
перегрева
1009.8 1005.7
15 21.03 С 3 30 км 4/1 600 м
[Cu Sc]
+31.6 +25.1 69 +46 +46 опасность
перегрева
1009.6 1005.5
18 21.03 ЮВ 5 30 км 3/1 600 м
[Cu Sc]
+27.8 +23.8 79 +38 +38 очень
душно
1011.8 1007.7 +33.5
21 21.03 В 2 30 км 1/1 600 м
[Cu hum]
+25.0 +22.9 88 +33 +33 очень
душно
1012.1 1007.9
00 22.03 В 3 30 км 1/1 600 м
[Cu hum]
+24.8 +22.2 85 +32 +32 очень
душно
1011.2 1007.0
03 22.03 В 3 30 км 1/1 600 м
[Cu hum Ci fib]
+23.5 +21.4 88 +30 +30 очень
душно
1011.1 1006.9
06 22.03 ЮЗ 3 30 км 4/1 600 м
[Cu Sc]
+30.0 +23.6 69 +41 +47 опасность
перегрева
1013.1 1008.9 +24.0
09 22.03 СЗ 6 30 км 5/1 600 м
[Cu Sc As op]
+32.5 +25.6 67 +47 +53 опасность
перегрева
1011.9 1007.8
12 22.03 СЗ 2 30 км 9/5 600 м
[Cb cap]
+31.0 +24.6 69 +44 +47 опасность
перегрева
1011.3 1007.1
15 22.03 СЗ 2 30 км 4/3 600 м
[Cu Sc Ci sp]
+30.4 +24.3 70 +42 +42 опасность
перегрева
1010.4 1006.3
18 22.03 30 км н/о +26.2 +23.7 86 +36 +36 очень
душно
1012.4 1008.2 +33.0
21 22.03 ЮВ 3 30 км 1/1 600 м
[Cu hum]
+24.8 +22.8 89 +33 +33 очень
душно
1012.7 1008.5
00 23.03 В 3 25 км 1/1 600 м
[Cu hum]
+24.0 +22.6 92 +31 +31 очень
душно
1011.2 1007.0
03 23.03 В 2 30 км 1/1 600 м
[Cu med, cong]
+23.8 +21.6 87 +30 +30 очень
душно
1011.5 1007.2
06 23.03 ЮЗ 2 30 км 3/3 600 м
[Cu Sc Ci fib]
+30.2 +23.9 69 +42 +48 опасность
перегрева
1013.3 1009.2 +23.5
09 23.03 ЮЗ 3 30 км 6/5 600 м
[Cu Sc Ci fib]
+30.3 +25.0 73 +43 +53 опасность
перегрева
1012.0 1007.8
12 23.03 З 3 30 км 8/8 600 м
[Cu Sc Ci fib]
+31.0 +26.4 77 +47 +49 опасность
перегрева
1009.8 1005.7
15 23.03 СВ 2 30 км в посл. час дождь 9/9 600 м
[Cu Sc As op]
+26.0 +25.5 97 +38 +38 очень
душно
1010.5 1006.3
21 23.03 В 2 30 км 3/3 600 м
[Cu Sc]
+25.5 +23.4 88 +34 +34 очень
душно
1012.1 1007.8
00 24.03 ЮВ 2 30 км 4/3 600 м
[Cu Sc Ci sp]
+24.6 +23.8 95 +33 +33 очень
душно
1010.4 1006.2

 

Местоположение метеостанции Морони (Коморские Острова): широта -11.53 долгота 43.27 высота над уровнем моря 29 м.

В архиве по умолчанию представлена погода в Морони за последнюю неделю. Архивные данные за месяц целиком и за предыдущие месяцы, начиная с января 2011 года, Вы можете получить, выбрав интересующий диапазон дат из раскрывающегося списка и нажав кнопку "Ввод!".


*Определитесь, кто Вы:
робот инопланетянин человек

Внимание! Время в таблицах - всемирное. Для получения местного времени необходимо прибавить поправку, которая равна 3 ч.

Смотрите также архив погоды в соседних городах и на ближайших метеорологических станциях:

Погода в Дзаудзи (Коморские Острова) (260 км)
Погода в Пембе (Мадагаскар) (339 км)
Погода в Мтваре (Танзания) (366 км)
Погода на Острове Глорьёз (Реюньон) (428 км)
Погода в Лумбо (Мозамбик) (480 км)
Погода в Монтепуезе (Мозамбик) (494 км)
Погода в Махадзанге (Мадагаскар) (567 км)
Погода в Аэропорту Fascene (Мадагаскар) (583 км)
Погода в Нампула (Мозамбик) (587 км)
Погода в Бесалампи (Мадагаскар) (595 км)

Пояснения к столбцам:

Ветер - указаны скорость ветра в м/с - средняя за 10 мин, порывы в срок и между сроками (в фигурных скобках) и направление, откуда дует ветер: С - северный, СВ - северо-восточный, В - восточный, ЮВ - юго-восточный, Ю - южный, ЮЗ - юго-западный, З - западный, СЗ - северо-западный.
Видимость - горизонтальная дальность видимости в метрах или километрах. При видимости от 1 до 10 км при отсутствии осадков обычно наблюдается дымка, при ухудшении видимости до 1 км и менее - туман. В сухую погоду видимость может ухудшаться дымом, пылью или мглою.
Явления - указаны атмосферные явления, наблюдавшиеся в срок или в последний час перед сроком; фигурными скобками обозначены явления, наблюдавшиеся между сроками (за 1-3 часа до срока); квадратными скобками обозначены град или гололедные отложения с указанием их диаметра в мм.
Облачность - указаны через наклонную черту общая и нижняя облачность в баллах и высота нижней границы облаков в метрах; квадратными скобками обозначены формы облаков: Ci - перистые, Cs - перисто-слоистые, Cc - перисто-кучевые, Ac - высококучевые, As - высокослоистые, Sc - слоисто-кучевые, Ns - слоисто-дождевые, Cu - кучевые, Cb - кучево-дождевые. Подробнее классификацию облаков см. в Атласе облаков (PDF).
T - Температура воздуха - температура, измеренная на высоте 2 м над землей.
Td - Температура точки росы - температура, при понижении до которой содержащийся в воздухе водяной пар достигнет насыщения.
f - Относительная влажность воздуха - влажноcть воздуха, измеренная на высоте 2 м над землей.
Te - Эффективная температура - температура, которую ощущает одетый по сезону человек в тени. Характеристика душности погоды. При расчете учитывается влияние влажности воздуха и скорости ветра на теплоощущения человека.
Tes - Эффективная температура на солнце - температура, которую ощущает человек, с поправкой на солнечный нагрев. Характеристика знойности погоды. Зависит от высоты солнца над горизонтом, облачности и скорости ветра. Ночью, в пасмурную погоду, а также при ветре 12 м/с и более поправка равна нулю.
P - Атмосферное давление - приведенное к уровню моря атмосферное давление.
Po - Атмосферное давление - измеренное на уровне метеостанции атмосферное давление.
Tmin - Минимальная температура - минимум температуры воздуха на высоте 2 м над землей.
Tmax - Максимальная температура - максимум температуры воздуха на высоте 2 м над землей.
R - Количество осадков - Количество выпавших осадков за период времени, мм. При наведении курсора мыши на число - период времени, за который выпало указанное количество осадков.
R24 - Количество осадков - Количество выпавших осадков за 24 часа, мм.
S - Снежный покров - Высота снежного покрова, см. При наведении курсора мыши на число - состояние снежного покрова и степень покрытия местности в баллах.